www.pogodaiklimat.ru

ПОГОДА в Sigatoka

  • Прогноз погоды в Sigatoka
  • Монитор погоды в Sigatoka
  • Климат города

АРХИВ ПОГОДЫ в Sigatoka

Время (UTC), дата Ветер
(напр.,м/с)
 
Видим.   Явления Облачность Т
(С)
Тd
(С)
f
(%)
Тe
(С)
Тes
(С)
Комфортность P
(гПа)
Po
(гПа)
Тmin
(С)
Tmax
(С)
R
(мм)
S
(см)
15 6.01 СВ 1 н/о н/о -39.4 -76.1 1 -41 -41 опасность
обморожения
1009.8 1008.4
18 6.01 СВ 2 н/о н/о -39.4 -75.4 1 -47 -47 опасность
обморожения
1010.4 1009.0
21 6.01 СВ 2 н/о н/о -39.3 -75.4 1 -48 -48 опасность
обморожения
1011.6 1010.2
00 7.01 ЮВ 3 н/о н/о -39.3 -75.4 1 -50 -50 опасность
обморожения
1010.5 1009.1 -39.6
03 7.01 СЗ 1 н/о н/о -39.3 -75.4 1 -45 -45 опасность
обморожения
1009.5 1008.1
06 7.01 ЮВ 2 н/о н/о -39.3 -75.4 1 -47 -47 опасность
обморожения
1009.0 1007.6 16
09 7.01 штиль 0 н/о н/о -39.3 -75.4 1 -39 -39 опасность
обморожения
1010.8 1009.4
12 7.01 С 1 н/о н/о -39.4 -75.4 1 -45 -45 опасность
обморожения
1010.6 1009.2 +32.1
15 7.01 С 2 н/о н/о -39.4 -75.4 1 -47 -47 опасность
обморожения
1008.8 1007.4
18 7.01 СВ 2 н/о н/о -39.4 -75.4 1 -47 -47 опасность
обморожения
1010.2 1008.8
21 7.01 СВ 2 н/о н/о -39.3 -75.4 1 -48 -48 опасность
обморожения
1011.0 1009.6
00 8.01 ЮВ 3 н/о н/о -39.3 -74.8 1 -50 -50 опасность
обморожения
1010.5 1009.1 -39.6
03 8.01 ЮВ 3 н/о н/о +5.4 -0.7 65 +3 +3 1009.3 1008.1
06 8.01 ЮВ 3 н/о н/о +5.4 -0.7 65 +3 +3 1009.3 1008.1
15 8.01 СВ 2 н/о н/о -39.4 -75.4 1 -47 -47 опасность
обморожения
1010.6 1009.2
18 8.01 В 2 н/о н/о -39.4 -75.4 1 -47 -47 опасность
обморожения
1011.9 1010.5
21 8.01 В 2 н/о н/о -39.3 -75.4 1 -48 -48 опасность
обморожения
1013.1 1011.7
00 9.01 0 н/о 1012.4 1011.2 -39.6
03 9.01 ЮВ 1 н/о н/о +10.5 +5.6 72 +10 +10 1011.6 1010.4
12 9.01 С 1 н/о н/о -39.4 -76.1 1 -45 -45 опасность
обморожения
1014.4 1013.0 +32.6 0.5
15 9.01 СВ 3 н/о н/о -39.4 -75.4 1 -50 -50 опасность
обморожения
1012.1 1010.7
18 9.01 С 1 н/о н/о -39.4 -75.4 1 -41 -41 опасность
обморожения
1014.3 1012.9
21 9.01 СВ 2 н/о н/о -39.3 -75.4 1 -48 -48 опасность
обморожения
1014.9 1013.5
00 10.01 Ю 4 н/о н/о -38.6 -70.0 2 -51 -51 опасность
обморожения
1014.3 1012.9 -39.7
03 10.01 СВ 3 н/о н/о -39.4 -75.4 1 -51 -51 опасность
обморожения
1013.5 1012.1
06 10.01 СВ 2 н/о н/о -39.4 -75.4 1 -47 -47 опасность
обморожения
1013.6 1012.2 1
09 10.01 СВ 2 н/о н/о -39.4 -75.4 1 -47 -47 опасность
обморожения
1014.9 1013.5
12 10.01 СВ 1 н/о н/о -39.4 -75.4 1 -41 -41 опасность
обморожения
1015.1 1013.7 +32.5
15 10.01 СВ 2 н/о н/о -39.4 -75.4 1 -47 -47 опасность
обморожения
1013.8 1012.4
18 10.01 С 1 н/о н/о -39.4 -75.4 1 -45 -45 опасность
обморожения
1014.3 1012.9
21 10.01 В 2 н/о н/о -39.3 -75.4 1 -47 -47 опасность
обморожения
1014.9 1013.5
00 11.01 Ю 3 н/о н/о -39.3 -75.4 1 -50 -50 опасность
обморожения
1013.8 1012.4 -39.7
03 11.01 Ю 3 н/о н/о -39.3 -75.4 1 -51 -51 опасность
обморожения
1012.4 1011.0
06 11.01 н/о н/о -39.4 -76.1 1 1013.2 1011.8 32
09 11.01 СВ 2 н/о н/о -39.4 -75.4 1 -47 -47 опасность
обморожения
1013.4 1012.0
12 11.01 СВ 1 н/о н/о -39.4 -75.4 1 -45 -45 опасность
обморожения
1013.8 1012.4 +32.3 2
15 11.01 СВ 2 н/о н/о -39.4 -75.4 1 -49 -49 опасность
обморожения
1012.5 1011.1
18 11.01 СВ 3 н/о н/о -39.4 -75.4 1 -50 -50 опасность
обморожения
1013.1 1011.7
21 11.01 СВ 2 н/о н/о -39.4 -75.4 1 -49 -49 опасность
обморожения
1013.5 1012.1
00 12.01 Ю 2 н/о н/о +22.2 +20.0 87 +28 +28 душно 1011.8 1010.7 -39.7
03 12.01 Ю 2 н/о н/о -28.0 -45.3 17 -35 -35 опасность
обморожения
1011.0 1009.6
09 12.01 н/о н/о -39.4 -75.4 1 1013.0 1011.6
12 12.01 С 2 н/о н/о -39.4 -75.4 1 -47 -47 опасность
обморожения
1013.0 1011.6 +33.4 1
00 13.01 Ю 3 н/о н/о +31.6 +31.6 100 +64 +64 опасность
перегрева
1011.2 1010.1 -39.7
03 13.01 ЮЗ 2 н/о н/о +30.1 +29.8 98 +55 +55 опасность
перегрева
1010.0 1008.9
06 13.01 СВ 3 н/о н/о -4.9 -23.1 23 -7 -7 1011.3 1009.9
09 13.01 СВ 2 н/о н/о -39.4 -75.4 1 -47 -47 опасность
обморожения
1012.6 1011.2
12 13.01 СЗ 1 н/о н/о -39.4 -75.4 1 -41 -41 опасность
обморожения
1012.6 1011.2 +33.2
15 13.01 С 2 н/о н/о -39.4 -75.4 1 -47 -47 опасность
обморожения
1011.0 1009.6
18 13.01 СВ 2 н/о н/о -39.4 -75.4 1 -49 -49 опасность
обморожения
1011.4 1010.0 0.5
21 13.01 СВ 2 н/о н/о -39.3 -75.4 1 -48 -48 опасность
обморожения
1011.4 1010.0
00 14.01 ЮЗ 2 н/о н/о -39.3 -74.8 1 -47 -47 опасность
обморожения
1011.2 1009.8 -39.7
03 14.01 ЮЗ 2 н/о н/о +32.5 -75.0 0 +69 +69 опасность
перегрева
1010.0 1008.9
06 14.01 С 1 н/о н/о -39.3 -75.4 1 -41 -41 опасность
обморожения
1011.4 1010.0 1
09 14.01 В 1 н/о н/о -39.4 -75.4 1 -45 -45 опасность
обморожения
1012.7 1011.3
12 14.01 С 1 н/о н/о -39.4 -75.4 1 -45 -45 опасность
обморожения
1012.2 1010.8 +33.1 1

 

Местоположение метеостанции Sigatoka (Фиджи): широта -18.15 долгота 178.41 высота над уровнем моря 9 м.

В архиве по умолчанию представлена погода в Sigatoka за последнюю неделю. Архивные данные за месяц целиком и за предыдущие месяцы, начиная с января 2011 года, Вы можете получить, выбрав интересующий диапазон дат из раскрывающегося списка и нажав кнопку "Ввод!".

Внимание! Время в таблицах - всемирное. Для получения местного времени необходимо прибавить поправку, которая в Sigatoka равна 12 ч.

Ветер - указаны скорость ветра в м/с - средняя за 10 мин, порывы в срок и между сроками (в фигурных скобках) и направление, откуда дует ветер: С - северный, СВ - северо-восточный, В - восточный, ЮВ - юго-восточный, Ю - южный, ЮЗ - юго-западный, З - западный, СЗ - северо-западный.
Видимость - горизонтальная дальность видимости в метрах или километрах. При видимости от 1 до 10 км при отсутствии осадков обычно наблюдается дымка, при ухудшении видимости до 1 км и менее - туман. В сухую погоду видимость может ухудшаться дымом, пылью или мглою.
Явления - указаны атмосферные явления, наблюдавшиеся в срок или в последний час перед сроком; фигурными скобками обозначены явления, наблюдавшиеся между сроками (за 1-3 часа до срока); квадратными скобками обозначены град или гололедные отложения с указанием их диаметра в мм.
Облачность - указаны через наклонную черту общая и нижняя облачность в баллах и высота нижней границы облаков в метрах; квадратными скобками обозначены формы облаков: Ci - перистые, Cs - перисто-слоистые, Cc - перисто-кучевые, Ac - высококучевые, As - высокослоистые, Sc - слоисто-кучевые, Ns - слоисто-дождевые, Cu - кучевые, Cb - кучево-дождевые. Подробнее классификацию облаков см. в Атласе облаков (PDF).
T - Температура воздуха - температура, измеренная на высоте 2 м над землей.
Td - Температура точки росы - температура, при понижении до которой содержащийся в воздухе водяной пар достигнет насыщения.
f - Относительная влажность воздуха - влажноcть воздуха, измеренная на высоте 2 м над землей.
Te - Эффективная температура - температура, которую ощущает одетый по сезону человек в тени. Характеристика душности погоды. При расчете учитывается влияние влажности воздуха и скорости ветра на теплоощущения человека.
Tes - Эффективная температура на солнце - температура, которую ощущает человек, с поправкой на солнечный нагрев. Характеристика знойности погоды. Зависит от высоты солнца над горизонтом, облачности и скорости ветра. Ночью, в пасмурную погоду, а также при ветре 12 м/с и более поправка равна нулю.
P - Атмосферное давление - приведенное к уровню моря атмосферное давление.
Po - Атмосферное давление - измеренное на уровне метеостанции атмосферное давление.
Tmin - Минимальная температура - минимум температуры воздуха на высоте 2 м над землей.
Tmax - Максимальная температура - максимум температуры воздуха на высоте 2 м над землей.
R - Количество осадков - Количество выпавших осадков, мм. При наведении курсора мыши на число - период времени, за который выпало указанное количество осадков.
S - Снежный покров - Высота снежного покрова, см. При наведении курсора мыши на число - состояние снежного покрова и степень покрытия местности в баллах.